Torna al catalogo

COSMOS 1275 DEB

AttivoPO
NORAD 42191·DEBRIS·🇷🇺 Russia

Lanciato Jun 4, 1981 da Plesetsk Cosmodrome

Loading…

Prossimi Passaggi (prossime 24 ore)

TLE

In scadenzaSource: Space-Track

Epoca: Sep 9, 2026, 04:01 UTC

1 42191U 81053TF  26252.16755726  .00001243  00000-0  68105-3 0  9993
2 42191  82.8189  59.0419 0037195  74.5853 285.9427 14.10811642655012

Traccia COSMOS 1275 DEB in tempo reale con AllMySat

Download on the App Store